1514077200.29,5130,8.44,73160.5,-2.87,-3.79,-3.71,0,*62
1514077201.52,5131,8.44,73182.5,-2.87,-3.71,-3.71,0,*6B
1514077202.75,5132,8.44,73184.0,-2.87,-3.71,-3.71,0,*68
1514077203.98,5133,8.44,73204.8,-2.89,-3.79,-3.79,0,*67
1514077205.21,5134,8.44,73192.5,-2.87,-3.71,-3.71,0,*6E
1514077206.45,5135,8.44,73182.3,-2.87,-3.71,-3.71,0,*6F
1514077207.67,5136,8.44,73226.5,-2.87,-3.71,-3.79,0,*64
1514077208.92,5137,8.44,73186.8,-2.89,-3.71,-3.71,0,*63
1514077210.13,5138,8.44,73156.3,-2.87,-3.79,-3.79,0,*62
1514077211.38,5139,8.44,73122.5,-2.89,-3.71,-3.71,0,*6D
1514077212.64,5140,8.44,73098.5,-2.89,-3.71,-3.71,0,*63
1514077213.9,5141,8.44,73098.8,-2.89,-3.71,-3.71,0,*62
1514077215.13,5142,8.44,73148.0,-2.87,-3.71,-3.71,0,*6F
1514077216.39,5143,8.44,73198.0,-2.89,-3.71,-3.71,0,*60
1514077217.63,5144,8.44,73202.8,-2.89,-3.71,-3.79,0,*6F
1514077218.86,5145,8.44,73240.5,-2.87,-3.71,-3.71,0,*68
1514077220.11,5146,8.44,73254.3,-2.89,-3.71,-3.79,0,*6D
1514077221.36,5147,8.44,73266.5,-2.89,-3.71,-3.71,0,*64
1514077222.58,5148,8.44,73268.0,-2.87,-3.71,-3.79,0,*6D
1514077223.84,5149,8.44,73268.0,-2.89,-3.71,-3.71,0,*6A
1514077225.1,5150,8.44,73266.8,-2.89,-3.71,-3.71,0,*62
1514077226.33,5151,8.44,73258.3,-2.87,-3.71,-3.71,0,*6D
1514077227.59,5152,8.44,73244.0,-2.89,-3.71,-3.71,0,*60
1514077228.84,5153,8.44,73232.5,-2.89,-3.71,-3.71,0,*61
1514077230.1,5154,8.44,73246.8,-2.89,-3.71,-3.71,0,*66
1514077231.34,5155,8.44,73258.8,-2.87,-3.71,-3.71,0,*69
1514077232.59,5156,8.44,73266.5,-2.89,-3.71,-3.71,0,*64
1514077233.85,5157,8.44,73268.3,-2.89,-3.71,-3.71,0,*65
1514077235.11,5158,8.44,73254.0,-2.89,-3.71,-3.71,0,*6A
1514077236.36,5159,8.44,73256.0,-2.89,-3.71,-3.71,0,*6B
1514077237.61,5160,8.44,73268.0,-2.89,-3.79,-3.71,0,*69
1514077238.86,5161,8.44,73260.8,-2.89,-3.71,-3.71,0,*60
1514077240.1,5162,8.44,73274.5,-2.89,-3.79,-3.71,0,*6B
1514077241.35,5163,8.44,73244.5,-2.89,-3.79,-3.71,0,*6A
1514077242.55,5164,8.44,73224.3,-2.91,-3.75,-3.75,0,*6C
1514077243.78,5165,8.44,73196.8,-2.87,-3.71,-3.71,0,*6A
1514077245.04,5166,8.44,73196.3,-2.89,-3.71,-3.71,0,*67
1514077246.28,5167,8.44,73186.8,-2.89,-3.79,-3.71,0,*6E
1514077247.54,5168,8.44,73178.5,-2.89,-3.71,-3.71,0,*69
1514077248.8,5169,8.44,73212.0,-2.89,-3.71,-3.71,0,*68
1514077250.05,5170,8.44,73208.8,-2.89,-3.71,-3.71,0,*60
1514077251.31,5171,8.44,73212.5,-2.89,-3.71,-3.71,0,*61
1514077252.54,5172,8.44,73226.0,-2.89,-3.79,-3.79,0,*62
1514077253.78,5173,8.44,73222.8,-2.89,-3.71,-3.79,0,*6B
1514077255.02,5174,8.44,73222.8,-2.89,-3.71,-3.79,0,*6C
1514077256.26,5175,8.44,73202.8,-2.89,-3.71,-3.79,0,*6D
1514077257.46,5176,8.44,73204.3,-2.91,-3.75,-3.75,0,*6F
1514077258.67,5177,8.44,73188.5,-2.91,-3.75,-3.83,0,*67
1514077259.87,5178,8.44,73204.8,-2.91,-3.75,-3.75,0,*61
1514077261.11,5179,8.44,73182.0,-2.89,-3.79,-3.71,0,*61
1514077262.37,5180,8.44,73182.3,-2.89,-3.71,-3.71,0,*6F
1514077263.58,5181,8.44,73188.0,-2.91,-3.75,-3.75,0,*67
1514077264.8,5182,8.44,73180.8,-2.89,-3.79,-3.79,0,*6D
1514077266.0,5183,8.44,73168.5,-2.91,-3.83,-3.75,0,*6C
1514077267.25,5184,8.44,73152.8,-2.89,-3.79,-3.71,0,*63
1514077268.45,5185,8.44,73162.0,-2.95,-3.83,-3.75,0,*6E
1514077269.67,5186,8.44,73166.5,-2.89,-3.79,-3.79,0,*69
1514077270.93,5187,8.44,73174.3,-2.89,-3.71,-3.67,0,*6F
1514077272.19,5188,8.44,73204.0,-2.89,-3.71,-3.67,0,*60
1514077273.39,5189,8.44,73188.0,-2.91,-3.75,-3.75,0,*6F
1514077274.65,5190,8.44,73204.0,-2.89,-3.71,-3.71,0,*6E
1514077275.86,5191,8.44,73204.5,-2.91,-3.75,-3.75,0,*66
1514077277.06,5192,8.44,73184.8,-2.91,-3.83,-3.75,0,*6C
1514077278.27,5193,8.44,73184.3,-2.91,-3.75,-3.75,0,*64
1514077279.52,5194,8.44,73186.0,-2.89,-3.71,-3.71,0,*6A
1514077280.78,5195,8.44,73166.5,-2.89,-3.71,-3.71,0,*6B
1514077281.99,5196,8.44,73160.8,-2.91,-3.75,-3.75,0,*61
1514077283.23,5197,8.44,73148.3,-2.89,-3.79,-3.71,0,*61
1514077284.43,5198,8.44,73154.8,-2.91,-3.75,-3.75,0,*6F
1514077285.64,5199,8.44,73194.3,-2.91,-3.75,-3.75,0,*6E
1514077286.84,5200,8.44,73214.8,-2.91,-3.75,-3.83,0,*64
1514077288.04,5201,8.44,73242.0,-2.91,-3.75,-3.75,0,*6C
1514077289.3,5202,8.44,73222.0,-2.89,-3.71,-3.71,0,*66
1514077290.51,5203,8.44,73184.0,-2.91,-3.83,-3.75,0,*67
1514077291.71,5204,8.44,73206.5,-2.91,-3.75,-3.75,0,*69
1514077292.91,5205,8.44,73206.0,-2.95,-3.75,-3.75,0,*6C
1514077294.15,5206,8.44,73222.3,-2.89,-3.79,-3.71,0,*6A
1514077295.36,5207,8.44,73240.0,-2.91,-3.75,-3.75,0,*6A
1514077296.6,5208,8.44,73258.8,-2.89,-3.79,-3.71,0,*64
1514077297.8,5209,8.44,73226.8,-2.91,-3.75,-3.83,0,*6D
1514077299.0,5210,8.44,73224.5,-2.91,-3.83,-3.83,0,*6C
1514077300.21,5211,8.44,73224.3,-2.95,-3.75,-3.75,0,*69
1514077301.41,5212,8.44,73216.0,-2.91,-3.83,-3.75,0,*67
1514077302.62,5213,8.44,73206.8,-2.91,-3.75,-3.75,0,*6F
1514077303.82,5214,8.44,73218.3,-2.95,-3.75,-3.75,0,*6C
1514077305.08,5215,8.44,73230.3,-2.89,-3.71,-3.71,0,*60
1514077306.28,5216,8.44,73234.0,-2.95,-3.75,-3.83,0,*67
1514077307.48,5217,8.44,73214.3,-2.91,-3.75,-3.83,0,*62
1514077308.74,5218,8.44,73192.8,-2.89,-3.71,-3.71,0,*6D
1514077309.94,5219,8.44,73192.8,-2.95,-3.83,-3.75,0,*68
1514077311.14,5220,8.44,73212.8,-2.95,-3.75,-3.75,0,*6B
1514077312.35,5221,8.44,73176.5,-2.91,-3.75,-3.75,0,*6E
1514077313.55,5222,8.44,73176.5,-2.91,-3.75,-3.83,0,*64
1514077314.75,5223,8.44,73182.5,-2.95,-3.75,-3.75,0,*68
1514077315.95,5224,8.44,73194.5,-2.95,-3.75,-3.75,0,*6F
1514077317.16,5225,8.44,73210.8,-2.95,-3.75,-3.75,0,*6E
1514077318.36,5226,8.44,73220.8,-2.95,-3.75,-3.75,0,*6D
1514077319.56,5227,8.44,73214.3,-2.91,-3.75,-3.75,0,*68
1514077320.77,5228,8.44,73226.3,-2.91,-3.75,-3.75,0,*67
1514077321.97,5229,8.44,73216.3,-2.95,-3.75,-3.75,0,*62
1514077323.17,5230,8.44,73248.3,-2.91,-3.75,-3.83,0,*67
1514077324.38,5231,8.44,73230.8,-2.95,-3.75,-3.75,0,*6B
1514077325.58,5232,8.44,73230.5,-2.95,-3.75,-3.75,0,*68
1514077326.79,5233,8.44,73224.8,-2.91,-3.75,-3.75,0,*6D
1514077327.99,5234,8.44,73242.8,-2.95,-3.75,-3.75,0,*6E
1514077329.19,5235,8.44,73250.8,-2.95,-3.83,-3.75,0,*66
1514077330.39,5236,8.44,73244.0,-2.95,-3.83,-3.75,0,*65
1514077331.6,5237,8.44,73200.5,-2.91,-3.75,-3.75,0,*69
1514077332.8,5238,8.44,73190.0,-2.95,-3.75,-3.83,0,*6B
1514077334.0,5239,8.44,73176.3,-2.91,-3.75,-3.75,0,*67
1514077335.2,5240,8.38,73170.3,-2.95,-3.83,-3.75,0,*64
1514077336.46,5241,8.44,73176.5,-2.89,-3.71,-3.71,0,*61
1514077337.67,5242,8.44,73194.8,-2.95,-3.75,-3.75,0,*6F
1514077338.87,5243,8.44,73204.0,-2.95,-3.75,-3.75,0,*6E
1514077340.07,5244,8.44,73208.0,-2.95,-3.75,-3.83,0,*60
1514077341.27,5245,8.44,73210.8,-2.95,-3.83,-3.75,0,*61
1514077342.47,5246,8.44,73218.8,-2.95,-3.75,-3.75,0,*6B
1514077343.68,5247,8.44,73230.8,-2.95,-3.75,-3.75,0,*6A
1514077344.87,5248,8.44,73242.3,-2.95,-3.75,-3.83,0,*6C
1514077346.08,5249,8.44,73244.3,-2.95,-3.75,-3.75,0,*64
1514077347.28,5250,8.44,73250.3,-2.91,-3.83,-3.75,0,*61
1514077348.49,5251,8.44,73250.5,-2.91,-3.83,-3.75,0,*60
1514077349.69,5252,8.44,73254.8,-2.95,-3.75,-3.83,0,*67
1514077350.89,5253,8.44,73256.5,-2.95,-3.75,-3.75,0,*6F
1514077352.11,5254,8.44,73250.0,-2.97,-3.87,-3.79,0,*6B
1514077353.33,5255,8.44,73240.0,-2.97,-3.87,-3.79,0,*6A
1514077354.55,5256,8.44,73236.5,-2.97,-3.79,-3.87,0,*69
1514077355.77,5257,8.44,73232.3,-2.97,-3.79,-3.79,0,*69
1514077357.0,5258,8.44,73228.3,-2.97,-3.79,-3.79,0,*66
1514077358.22,5259,8.44,73218.8,-2.97,-3.87,-3.79,0,*66
1514077359.44,5260,8.44,73208.0,-2.97,-3.79,-3.79,0,*6D
1514077360.67,5261,8.44,73194.5,-2.97,-3.79,-3.79,0,*6C
1514077361.89,5262,8.44,73186.0,-2.97,-3.79,-3.79,0,*6F
1514077363.11,5263,8.44,73174.0,-2.97,-3.87,-3.79,0,*6F
1514077364.33,5264,8.44,73156.3,-2.97,-3.79,-3.79,0,*69
1514077365.56,5265,8.44,73148.5,-2.97,-3.79,-3.79,0,*68
1514077366.78,5266,8.44,73144.0,-2.97,-3.87,-3.79,0,*6A
1514077368.0,5267,8.44,73142.8,-2.97,-3.79,-3.79,0,*6A
1514077369.23,5268,8.44,73140.5,-2.97,-3.79,-3.79,0,*65
1514077370.45,5269,8.44,73150.8,-2.97,-3.79,-3.87,0,*65
1514077371.67,5270,8.44,73170.8,-2.97,-3.79,-3.79,0,*6C
1514077372.9,5271,8.44,73178.8,-2.97,-3.79,-3.79,0,*6D
1514077374.12,5272,8.44,73198.0,-2.97,-3.79,-3.87,0,*6F
1514077375.34,5273,8.44,73208.5,-2.97,-3.87,-3.79,0,*6E
1514077376.56,5274,8.44,73214.3,-2.97,-3.79,-3.79,0,*68
1514077377.78,5275,8.44,73210.3,-2.97,-3.79,-3.87,0,*68
1514077379.0,5276,8.44,73206.5,-2.97,-3.87,-3.79,0,*6B
1514077380.23,5277,8.44,73206.8,-2.97,-3.79,-3.79,0,*6B
1514077381.45,5278,8.44,73210.8,-2.97,-3.87,-3.79,0,*65
1514077382.64,5279,8.44,73204.5,-2.99,-3.87,-3.79,0,*6A
1514077383.86,5280,8.44,73212.5,-2.97,-3.87,-3.79,0,*62
1514077385.08,5281,8.44,73204.3,-2.97,-3.79,-3.79,0,*62
1514077386.3,5282,8.44,73214.8,-2.97,-3.87,-3.79,0,*60
1514077387.53,5283,8.44,73212.5,-2.97,-3.79,-3.79,0,*60
1514077388.75,5284,8.44,73226.8,-2.97,-3.79,-3.79,0,*67
1514077389.98,5285,8.44,73212.3,-2.97,-3.79,-3.79,0,*66
1514077391.2,5286,8.44,73216.5,-2.97,-3.79,-3.79,0,*65
1514077392.43,5287,8.44,73218.3,-2.97,-3.79,-3.79,0,*64
1514077393.65,5288,8.44,73224.3,-2.97,-3.87,-3.79,0,*6A
1514077394.87,5289,8.44,73224.8,-2.97,-3.79,-3.79,0,*6A
1514077396.07,5290,8.44,73224.3,-2.99,-3.79,-3.79,0,*6C
1514077397.27,5291,8.44,73228.0,-2.99,-3.79,-3.87,0,*6C
1514077398.49,5292,8.44,73222.0,-2.97,-3.79,-3.79,0,*60
1514077399.72,5293,8.44,73208.3,-2.97,-3.79,-3.79,0,*61
1514077400.92,5294,8.44,73176.3,-2.99,-3.79,-3.79,0,*68
1514077402.12,5295,8.44,73134.5,-2.99,-3.79,-3.79,0,*69
1514077403.35,5296,8.44,73082.5,-2.97,-3.79,-3.79,0,*64
1514077404.55,5297,8.44,73086.8,-2.99,-3.79,-3.79,0,*6B
1514077405.77,5298,8.44,73088.0,-2.97,-3.79,-3.79,0,*6A
1514077406.97,5299,8.44,73110.5,-2.99,-3.79,-3.79,0,*65
1514077408.18,5300,8.44,73124.8,-2.99,-3.79,-3.79,0,*64
1514077409.38,5301,8.44,73134.3,-2.99,-3.79,-3.79,0,*65
1514077410.58,5302,8.44,73154.3,-2.99,-3.79,-3.75,0,*6A
1514077411.78,5303,8.44,73158.5,-2.99,-3.79,-3.87,0,*66
1514077413.0,5304,8.44,73172.5,-2.97,-3.79,-3.79,0,*6E
1514077414.2,5305,8.44,73190.3,-2.99,-3.79,-3.79,0,*61
1514077415.43,5306,8.44,73202.5,-2.97,-3.79,-3.79,0,*6C
1514077416.62,5307,8.44,73208.3,-2.99,-3.87,-3.79,0,*62
1514077417.83,5308,8.44,73224.8,-2.99,-3.79,-3.79,0,*6C
1514077419.03,5309,8.44,73220.3,-2.99,-3.79,-3.79,0,*6D
1514077420.23,5310,8.44,73220.0,-2.99,-3.79,-3.79,0,*65
1514077421.43,5311,8.44,73232.0,-2.99,-3.79,-3.79,0,*64
1514077422.63,5312,8.44,73232.0,-2.99,-3.87,-3.79,0,*66
1514077423.85,5313,8.44,73224.5,-2.97,-3.79,-3.79,0,*68
1514077425.04,5314,8.44,73208.3,-2.99,-3.87,-3.87,0,*61
1514077426.24,5315,8.44,73210.5,-2.99,-3.79,-3.79,0,*60
1514077427.45,5316,8.44,73202.0,-2.99,-3.79,-3.79,0,*63
1514077428.65,5317,8.44,73206.3,-2.99,-3.79,-3.79,0,*62
1514077429.85,5318,8.44,73214.0,-2.99,-3.79,-3.87,0,*6C
1514077431.05,5319,8.44,73206.5,-2.99,-3.79,-3.79,0,*6C
1514077432.27,5320,8.44,73194.5,-2.97,-3.79,-3.79,0,*68
1514077433.5,5321,8.44,73184.5,-2.97,-3.79,-3.79,0,*69
1514077434.7,5322,8.44,73174.5,-2.99,-3.79,-3.79,0,*64
1514077435.9,5323,8.44,73198.5,-2.99,-3.79,-3.79,0,*65
1514077437.1,5324,8.44,73206.0,-2.99,-3.79,-3.79,0,*62
1514077438.3,5325,8.44,73210.5,-2.99,-3.79,-3.79,0,*63
1514077439.5,5326,8.44,73210.5,-2.99,-3.79,-3.79,0,*60
1514077440.71,5327,8.44,73224.0,-2.99,-3.79,-3.79,0,*61
1514077441.91,5328,8.44,73214.8,-2.99,-3.79,-3.79,0,*6E
1514077443.11,5329,8.44,73198.3,-2.99,-3.79,-3.87,0,*6E
1514077444.33,5330,8.44,73194.8,-2.97,-3.79,-3.87,0,*68
1514077445.53,5331,8.44,73178.0,-2.99,-3.79,-3.79,0,*66
1514077446.73,5332,8.44,73176.0,-2.99,-3.79,-3.79,0,*65
1514077447.95,5333,8.44,73166.5,-2.97,-3.79,-3.79,0,*6A
1514077449.16,5334,8.44,73170.0,-2.99,-3.79,-3.79,0,*63
1514077450.36,5335,8.44,73180.0,-2.99,-3.79,-3.79,0,*62
1514077451.58,5336,8.44,73180.0,-3.01,-3.83,-3.83,0,*61
1514077452.8,5337,8.44,73186.5,-2.97,-3.87,-3.79,0,*6F
1514077454.03,5338,8.44,73180.0,-3.01,-3.83,-3.83,0,*6F
1514077455.25,5339,8.44,73176.5,-3.01,-3.83,-3.83,0,*6E
1514077456.45,5340,8.44,73194.8,-2.99,-3.79,-3.87,0,*61
1514077457.65,5341,8.44,73178.3,-2.99,-3.79,-3.79,0,*61
1514077458.85,5342,8.44,73184.5,-2.99,-3.79,-3.79,0,*62
1514077460.05,5343,8.44,73180.8,-2.99,-3.79,-3.79,0,*63
1514077461.26,5344,8.44,73190.8,-2.99,-3.79,-3.79,0,*64
1514077462.48,5345,8.44,73204.3,-3.01,-3.83,-3.83,0,*65
1514077463.71,5346,8.44,73202.5,-3.01,-3.83,-3.83,0,*66
1514077464.91,5347,8.44,73144.8,-2.99,-3.79,-3.79,0,*67
1514077466.11,5348,8.44,73132.0,-2.99,-3.79,-3.79,0,*68
1514077467.31,5349,8.44,73128.3,-2.99,-3.79,-3.87,0,*68
1514077468.51,5350,8.44,73134.5,-2.99,-3.79,-3.79,0,*61
1514077469.73,5351,8.44,73140.5,-3.01,-3.83,-3.83,0,*60
1514077470.96,5352,8.44,73154.8,-3.01,-3.83,-3.83,0,*63
1514077472.18,5353,8.44,73154.3,-3.01,-3.83,-3.83,0,*62
1514077473.41,5354,8.44,73164.5,-3.01,-3.83,-3.83,0,*65
1514077474.64,5355,8.44,73140.3,-3.01,-3.83,-3.83,0,*64
1514077475.86,5356,8.44,73124.3,-3.01,-3.83,-3.83,0,*67
1514077477.09,5357,8.44,73110.8,-3.01,-3.83,-3.83,0,*66
1514077478.31,5358,8.44,73146.3,-3.01,-3.83,-3.83,0,*69
1514077479.54,5359,8.44,73124.3,-3.01,-3.83,-3.83,0,*68
1514077480.76,5360,8.44,73126.0,-3.01,-3.83,-3.83,0,*62
1514077481.96,5361,8.44,73124.3,-2.99,-3.79,-3.79,0,*63
1514077483.17,5362,8.44,73146.5,-2.99,-3.79,-3.79,0,*60
1514077484.37,5363,8.44,73162.8,-2.99,-3.79,-3.79,0,*61
1514077485.59,5364,8.44,73170.8,-3.01,-3.91,-3.83,0,*65
1514077486.82,5365,8.44,73188.3,-3.01,-3.83,-3.83,0,*67
1514077488.05,5366,8.44,73178.3,-3.01,-3.91,-3.83,0,*67
1514077489.27,5367,8.44,73178.0,-3.01,-3.91,-3.83,0,*66
1514077490.5,5368,8.44,73192.3,-3.01,-3.83,-3.83,0,*6A
1514077491.72,5369,8.44,73196.8,-3.01,-3.83,-3.83,0,*6B
1514077492.92,5370,8.44,73202.5,-3.03,-3.83,-3.83,0,*61
1514077494.15,5371,8.44,73198.0,-3.01,-3.83,-3.83,0,*62
1514077495.35,5372,8.44,73184.8,-3.03,-3.83,-3.83,0,*63
1514077496.55,5373,8.44,73198.8,-3.03,-3.83,-3.91,0,*61
1514077497.77,5374,8.44,73206.0,-3.01,-3.83,-3.83,0,*67
1514077498.98,5375,8.44,73218.5,-3.03,-3.83,-3.83,0,*64
1514077500.2,5376,8.44,73224.0,-3.01,-3.79,-3.83,0,*60
1514077501.43,5377,8.44,73240.3,-3.01,-3.79,-3.83,0,*61
1514077502.63,5378,8.44,73236.8,-3.03,-3.91,-3.83,0,*6A
1514077503.85,5379,8.44,73244.3,-3.01,-3.83,-3.83,0,*6A
1514077505.05,5380,8.44,73228.5,-3.03,-3.83,-3.83,0,*6E
1514077506.28,5381,8.44,73222.3,-3.01,-3.83,-3.83,0,*6D
1514077507.5,5382,8.44,73214.5,-3.01,-3.91,-3.83,0,*6D
1514077508.7,5383,8.44,73222.5,-3.03,-3.83,-3.83,0,*6D
1514077509.93,5384,8.44,73222.5,-3.01,-3.83,-3.83,0,*68
1514077511.15,5385,8.44,73236.8,-3.01,-3.83,-3.83,0,*69
1514077512.38,5386,8.44,73236.5,-3.01,-3.83,-3.83,0,*6A
1514077513.58,5387,8.44,73236.3,-3.03,-3.83,-3.91,0,*6A
1514077514.78,5388,8.44,73232.8,-3.03,-3.83,-3.83,0,*66
1514077515.98,5389,8.44,73226.5,-3.03,-3.83,-3.83,0,*67
1514077517.18,5390,8.44,73230.0,-3.03,-3.83,-3.83,0,*6F
1514077518.38,5391,8.44,73186.5,-3.03,-3.83,-3.83,0,*6E
1514077519.58,5392,8.44,73172.8,-3.03,-3.83,-3.83,0,*6D
1514077520.8,5393,8.44,73166.5,-3.01,-3.83,-3.83,0,*6E
1514077522.0,5394,8.44,73132.3,-3.03,-3.83,-3.83,0,*6B
1514077523.23,5395,8.44,73112.3,-3.01,-3.83,-3.91,0,*6B
1514077524.43,5396,8.44,73102.5,-3.03,-3.83,-3.83,0,*69
1514077525.63,5397,8.44,73066.8,-3.03,-3.83,-3.91,0,*6B
1514077526.83,5398,8.44,73064.0,-3.03,-3.83,-3.83,0,*67
1514077528.06,5399,8.44,73046.5,-3.01,-3.83,-3.83,0,*64
1514077529.26,5400,8.44,73072.8,-3.03,-3.91,-3.83,0,*62
1514077530.49,5401,8.44,73066.8,-3.01,-3.83,-3.79,0,*67
1514077531.69,5402,8.44,73040.5,-3.03,-3.83,-3.79,0,*66
1514077532.89,5403,8.44,73060.0,-3.03,-3.83,-3.79,0,*67
1514077534.09,5404,8.44,73070.8,-3.03,-3.83,-3.83,0,*65
1514077535.29,5405,8.44,73114.5,-3.03,-3.83,-3.83,0,*64
1514077536.49,5406,8.44,73104.8,-3.03,-3.83,-3.83,0,*67
1514077537.69,5407,8.44,73076.0,-3.03,-3.83,-3.83,0,*66
1514077538.89,5408,8.44,73106.8,-3.03,-3.83,-3.83,0,*69
1514077540.09,5409,8.44,73066.0,-3.03,-3.83,-3.83,0,*68
1514077541.29,5410,8.44,73082.0,-3.03,-3.83,-3.83,0,*60
1514077542.49,5411,8.44,73050.0,-3.03,-3.83,-3.83,0,*61
1514077543.69,5412,8.44,73080.8,-3.03,-3.91,-3.83,0,*61
1514077544.89,5413,8.44,73146.3,-3.03,-3.83,-3.83,0,*63
1514077546.09,5414,8.44,73164.5,-3.03,-3.83,-3.83,0,*64
1514077547.28,5415,8.44,73188.5,-3.03,-3.83,-3.83,0,*65
1514077548.48,5416,8.44,73142.8,-3.03,-3.83,-3.83,0,*66
1514077549.68,5417,8.44,73144.3,-3.03,-3.83,-3.83,0,*67
1514077550.88,5418,8.44,73142.8,-3.03,-3.83,-3.83,0,*68
1514077552.08,5419,8.44,73118.5,-3.03,-3.83,-3.83,0,*69
1514077553.28,5420,8.44,73108.0,-3.03,-3.83,-3.91,0,*60
1514077554.48,5421,8.44,73130.0,-3.03,-3.83,-3.83,0,*62
1514077555.68,5422,8.44,73150.0,-3.03,-3.83,-3.83,0,*61
1514077556.9,5423,8.44,73220.8,-3.05,-3.87,-3.87,0,*66
1514077558.09,5424,8.44,73220.3,-3.03,-3.87,-3.87,0,*67
1514077559.29,5425,8.44,73154.8,-3.03,-3.83,-3.83,0,*66
1514077560.49,5426,8.44,73164.3,-3.03,-3.83,-3.83,0,*65
1514077561.71,5427,8.44,73180.0,-3.01,-3.83,-3.83,0,*66
1514077562.93,5428,8.44,73182.0,-3.05,-3.87,-3.87,0,*6D
1514077564.14,5429,8.44,73176.3,-3.05,-3.87,-3.87,0,*6C
1514077565.34,5430,8.44,73148.0,-3.03,-3.83,-3.83,0,*62
1514077566.54,5431,8.44,73130.3,-3.03,-3.83,-3.83,0,*63
1514077567.74,5432,8.44,73134.0,-3.03,-3.83,-3.83,0,*60
1514077568.94,5433,8.44,73136.8,-3.03,-3.83,-3.83,0,*61
1514077570.14,5434,8.44,73142.3,-3.03,-3.83,-3.83,0,*66
1514077571.36,5435,8.44,73136.8,-3.01,-3.83,-3.83,0,*65
1514077572.57,5436,8.44,73132.5,-3.05,-3.87,-3.87,0,*62
1514077573.8,5437,8.44,73094.8,-3.07,-4.01,-3.91,0,*6F
1514077575.02,5438,8.44,73084.5,-3.05,-3.95,-3.87,0,*6F
1514077576.23,5439,8.44,73112.0,-3.05,-3.87,-3.87,0,*6D
1514077577.44,5440,8.44,73114.3,-3.05,-3.87,-3.87,0,*63
1514077578.64,5441,8.44,73186.3,-3.07,-3.91,-3.91,0,*60
1514077579.84,5442,8.44,73180.3,-3.03,-3.83,-3.83,0,*67
1514077581.04,5443,8.44,73188.3,-3.03,-3.83,-3.83,0,*66
1514077582.24,5444,8.44,73212.0,-3.03,-3.91,-3.83,0,*62
1514077583.46,5445,8.44,73184.5,-3.05,-3.95,-3.87,0,*65
1514077584.67,5446,8.44,73216.5,-3.05,-3.87,-3.87,0,*65
1514077585.89,5447,8.44,73190.5,-3.05,-3.87,-3.87,0,*64
1514077587.1,5448,8.44,73198.8,-3.05,-3.87,-3.87,0,*6B
1514077588.31,5449,8.44,73208.5,-3.05,-3.87,-3.95,0,*69
1514077589.52,5450,8.44,73226.3,-3.05,-3.87,-3.95,0,*61
1514077590.74,5451,8.44,73218.5,-3.05,-3.87,-3.87,0,*63
1514077591.95,5452,8.44,73216.8,-3.05,-3.87,-3.87,0,*60
1514077593.16,5453,8.44,73186.8,-3.05,-3.87,-3.87,0,*61
1514077594.38,5454,8.44,73152.5,-3.05,-3.87,-3.95,0,*65
1514077595.58,5455,8.44,73164.0,-3.07,-3.91,-3.91,0,*65
1514077596.8,5456,8.44,73194.0,-3.05,-3.95,-3.87,0,*67
1514077598.01,5457,8.44,73172.8,-3.05,-3.87,-3.87,0,*65
1514077599.2,5458,8.44,73162.8,-3.07,-3.87,-3.87,0,*68
1514077600.39,5459,8.44,73196.5,-3.07,-3.87,-3.87,0,*69
1514077601.61,5460,8.44,73184.8,-3.05,-3.95,-3.95,0,*61
1514077602.81,5461,8.44,73170.3,-3.07,-3.91,-3.91,0,*62
1514077604.03,5462,8.44,73198.3,-3.05,-3.95,-3.87,0,*60
1514077605.23,5463,8.44,73224.3,-3.07,-3.91,-3.91,0,*60
1514077606.45,5464,8.44,73222.0,-3.05,-3.87,-3.87,0,*65
1514077607.67,5465,8.44,73252.8,-3.07,-4.01,-3.91,0,*68
1514077608.88,5466,8.44,73224.3,-3.07,-3.91,-3.91,0,*65
1514077610.08,5467,8.44,73222.3,-3.07,-3.91,-3.91,0,*64
1514077611.31,5468,8.44,73234.3,-3.07,-4.01,-3.91,0,*65
1514077612.52,5469,8.44,73226.0,-3.05,-3.87,-3.87,0,*68
1514077613.72,5470,8.44,73204.5,-3.07,-3.91,-3.91,0,*62
1514077614.93,5471,8.44,73156.8,-3.05,-3.87,-3.87,0,*61
1514077616.13,5472,8.44,73178.0,-3.07,-3.87,-3.87,0,*60
1514077617.34,5473,8.44,73254.3,-3.05,-3.87,-3.87,0,*63
1514077618.54,5474,8.44,73274.0,-3.07,-3.91,-3.91,0,*66
1514077619.76,5475,8.44,73278.0,-3.05,-3.87,-3.87,0,*65
1514077620.96,5476,8.44,73256.5,-3.07,-3.91,-3.91,0,*64
1514077622.16,5477,8.44,73232.0,-3.07,-3.91,-3.91,0,*65
1514077623.38,5478,8.44,73192.3,-3.05,-3.87,-3.87,0,*68
1514077624.59,5479,8.44,73152.8,-3.05,-3.87,-3.87,0,*69
1514077625.8,5480,8.44,73138.3,-3.05,-3.87,-3.87,0,*6F
1514077627.0,5481,8.44,73138.0,-3.07,-3.91,-3.91,0,*6C
1514077628.21,5482,8.44,73154.5,-3.07,-3.91,-3.91,0,*6F
1514077629.41,5483,8.44,73164.8,-3.07,-3.91,-3.91,0,*6E
1514077630.61,5484,8.44,73182.5,-3.07,-3.91,-3.91,0,*69
1514077631.84,5485,8.44,73190.0,-3.07,-4.01,-3.91,0,*66
1514077633.04,5486,8.44,73188.0,-3.07,-3.91,-3.91,0,*6B
1514077634.26,5487,8.44,73192.0,-3.05,-3.87,-3.83,0,*6C
1514077635.48,5488,8.44,73202.3,-3.07,-4.01,-3.87,0,*6C
1514077636.68,5489,8.44,73214.0,-3.07,-3.91,-3.87,0,*63
1514077637.88,5490,8.44,73206.5,-3.07,-3.91,-3.91,0,*6C
1514077639.08,5491,8.44,73184.5,-3.07,-3.91,-3.91,0,*6D
1514077640.29,5492,8.44,73220.3,-3.07,-3.91,-3.91,0,*6E
1514077641.49,5493,8.44,73206.5,-3.07,-3.91,-3.91,0,*6F
1514077642.72,5494,8.44,73210.0,-3.07,-4.01,-3.91,0,*66
1514077643.92,5495,8.44,73190.0,-3.07,-3.91,-3.91,0,*69
1514077645.15,5496,8.44,73184.3,-3.07,-3.91,-4.01,0,*64
1514077646.35,5497,8.44,73198.0,-3.07,-3.91,-3.91,0,*6B
1514077647.55,5498,8.44,73212.0,-3.07,-3.91,-3.91,0,*64
1514077648.77,5499,8.44,73224.5,-3.05,-3.87,-3.87,0,*67
1514077649.96,5500,8.44,73228.8,-3.07,-3.91,-3.87,0,*63
1514077651.17,5501,8.44,73206.3,-3.07,-3.91,-3.87,0,*62
1514077652.36,5502,8.44,73220.0,-3.07,-3.91,-3.87,0,*61
1514077653.57,5503,8.44,73194.5,-3.07,-3.91,-3.91,0,*67
1514077654.77,5504,8.44,73178.8,-3.07,-3.91,-3.91,0,*60
1514077655.97,5505,8.44,73172.3,-3.07,-3.91,-3.91,0,*61
1514077657.2,5506,8.44,73176.8,-3.09,-3.91,-3.91,0,*6C
1514077658.43,5507,8.44,73240.0,-3.09,-3.91,-3.91,0,*6D
1514077659.66,5508,8.44,73202.8,-3.09,-3.91,-3.91,0,*62
1514077660.89,5509,8.44,73152.5,-3.09,-3.91,-3.91,0,*63
1514077662.12,5510,8.44,73182.5,-3.09,-3.91,-3.91,0,*6B
1514077663.35,5511,8.44,73172.3,-3.09,-3.91,-3.91,0,*6A
1514077664.58,5512,8.44,73146.0,-3.09,-3.91,-3.91,0,*69
1514077665.81,5513,8.44,73128.3,-3.09,-3.91,-3.91,0,*68
1514077667.02,5514,8.44,73072.5,-3.05,-3.87,-3.87,0,*63
1514077668.22,5515,8.44,73060.8,-3.07,-3.91,-3.91,0,*60
1514077669.43,5516,8.44,73122.5,-3.07,-3.91,-3.91,0,*63
1514077670.66,5517,8.44,73144.0,-3.09,-3.91,-3.91,0,*6C
1514077671.86,5518,8.44,73166.5,-3.07,-3.91,-3.91,0,*6D
1514077673.07,5519,8.44,73166.3,-3.07,-3.91,-3.91,0,*6C
1514077674.27,5520,8.44,73146.0,-3.07,-3.91,-3.91,0,*66
1514077675.47,5521,8.44,73128.0,-3.07,-3.91,-3.91,0,*67
1514077676.67,5522,8.44,73122.0,-3.07,-3.91,-3.87,0,*63
1514077677.87,5523,8.44,73134.5,-3.07,-3.91,-3.87,0,*62
1514077679.07,5524,8.44,73146.3,-3.07,-3.91,-3.87,0,*65
1514077680.26,5525,8.44,73168.8,-3.11,-4.05,-3.91,0,*6E
1514077681.49,5526,8.44,73184.3,-3.09,-3.91,-3.87,0,*69
1514077682.74,5527,8.44,73180.3,-3.09,-4.01,-3.87,0,*66
1514077683.96,5528,8.44,73176.0,-3.09,-3.91,-3.91,0,*60
1514077685.17,5529,8.44,73172.8,-3.07,-3.91,-3.91,0,*6F
1514077686.42,5530,8.44,73172.5,-3.09,-4.01,-3.91,0,*67
1514077687.65,5531,8.44,73190.3,-3.09,-3.91,-3.91,0,*68
1514077688.88,5532,8.44,73196.8,-3.09,-3.91,-3.91,0,*6B
1514077690.11,5533,8.44,73210.5,-3.09,-3.91,-3.91,0,*6A
1514077691.34,5534,8.44,73212.3,-3.09,-3.91,-3.91,0,*6D
1514077692.57,5535,8.44,73222.3,-3.09,-3.91,-3.91,0,*6C
1514077693.8,5536,8.44,73234.5,-3.09,-3.91,-3.91,0,*6F
1514077695.05,5537,8.44,73192.3,-3.09,-3.91,-4.01,0,*60
1514077696.28,5538,8.44,73174.5,-3.09,-3.91,-3.91,0,*61
1514077697.51,5539,8.44,73182.0,-3.09,-3.91,-3.91,0,*60
1514077698.74,5540,8.44,73164.5,-3.09,-3.91,-3.91,0,*6E
1514077699.97,5541,8.44,73156.5,-3.09,-3.91,-3.91,0,*6F
1514077701.2,5542,8.44,73154.3,-3.09,-3.91,-3.91,0,*6C
1514077702.42,5543,8.44,73160.3,-3.09,-3.91,-3.91,0,*6D
1514077703.61,5544,8.44,73186.8,-3.11,-4.05,-3.95,0,*6D
1514077704.84,5545,8.44,73164.3,-3.09,-3.91,-3.91,0,*6B
1514077706.07,5546,8.44,73180.5,-3.09,-3.91,-3.91,0,*68
1514077707.3,5547,8.44,73176.5,-3.09,-3.91,-3.91,0,*69
1514077708.53,5548,8.44,73176.8,-3.09,-3.91,-3.91,0,*66
1514077709.76,5549,8.44,73158.8,-3.09,-3.91,-3.91,0,*67
1514077710.99,5550,8.44,73136.8,-3.09,-3.91,-3.91,0,*6F
1514077712.19,5551,8.44,73114.0,-3.11,-3.95,-3.95,0,*67
1514077713.44,5552,8.44,73126.3,-3.09,-3.91,-4.01,0,*63
1514077714.67,5553,8.44,73148.0,-3.09,-3.91,-3.91,0,*6C
1514077715.87,5554,8.44,73166.3,-3.11,-3.95,-4.05,0,*6C
1514077717.09,5555,8.44,73174.0,-3.09,-3.91,-3.91,0,*6A
1514077718.29,5556,8.44,73192.5,-3.11,-3.95,-3.95,0,*60
1514077719.54,5557,8.44,73186.5,-3.09,-4.01,-3.91,0,*66
1514077720.74,5558,8.44,73182.8,-3.11,-3.95,-3.95,0,*6E